,,,PA_Meas_PMT16A,,PR_Meas_QMR101_102,,RH_Meas_QMH101,,SR_Meas_QMS101,,TA_Meas_QMH101,,GenWind,,GenWind,
date,time,status,PA,status,PR,status,RH,status,SR,status,TA,status,DirAvg,status,SpdAvg,
2014-12-09, 00:00:04,VALID,1010.57,VALID,0,INVALID,133.489,VALID,0,VALID,23.1679,VALID,8,VALID,0,
2014-12-09, 00:01:04,VALID,1010.6,VALID,0,INVALID,133.451,VALID,0,VALID,23.1874,VALID,8,VALID,0,
2014-12-09, 00:02:04,VALID,1010.6,VALID,0,INVALID,133.443,VALID,0,VALID,23.1892,VALID,8,VALID,0,
2014-12-09, 00:03:04,VALID,1010.6,VALID,0,INVALID,133.413,VALID,0,VALID,23.1892,VALID,8,VALID,0,
2014-12-09, 00:04:04,VALID,1010.61,VALID,0,INVALID,133.374,VALID,0,VALID,23.1679,VALID,8,VALID,0,
2014-12-09, 00:05:04,VALID,1010.61,VALID,0,INVALID,133.344,VALID,0,VALID,23.1874,VALID,8,VALID,0,
2014-12-09, 00:06:04,VALID,1010.61,VALID,0,INVALID,133.275,VALID,0,VALID,23.1874,VALID,8,VALID,0,
2014-12-09, 00:07:04,VALID,1010.6,VALID,0,INVALID,133.252,VALID,0,VALID,23.2087,VALID,8,VALID,0,
2014-12-09, 00:08:04,VALID,1010.63,VALID,0,INVALID,133.207,VALID,0,VALID,23.2087,VALID,8,VALID,0,
2014-12-09, 00:09:04,VALID,1010.63,VALID,0,INVALID,133.191,VALID,0,VALID,23.2087,VALID,8,VALID,0,
2014-12-09, 00:10:04,VALID,1010.66,VALID,0,INVALID,133.207,VALID,0,VALID,23.1874,VALID,8,VALID,0,
2014-12-09, 00:11:04,VALID,1010.65,VALID,0,INVALID,133.184,VALID,0,VALID,23.1874,VALID,8,VALID,0,
2014-12-09, 00:12:04,VALID,1010.68,VALID,0,INVALID,133.214,VALID,0,VALID,23.1874,VALID,8,VALID,0,
2014-12-09, 00:13:04,VALID,1010.69,VALID,0,INVALID,133.176,VALID,0,VALID,23.1874,VALID,8,VALID,0,
2014-12-09, 00:14:04,VALID,1010.7,VALID,0,INVALID,133.191,VALID,0,VALID,23.2087,VALID,8,VALID,0,
2014-12-09, 00:15:04,VALID,1010.7,VALID,0,INVALID,133.207,VALID,0,VALID,23.1874,VALID,8,VALID,0,
2014-12-09, 00:16:04,VALID,1010.72,VALID,0,INVALID,133.199,VALID,0,VALID,23.2087,VALID,8,VALID,0,
2014-12-09, 00:17:04,VALID,1010.71,VALID,0,INVALID,133.207,VALID,0,VALID,23.1874,VALID,8,VALID,0,
2014-12-09, 00:18:04,VALID,1010.72,VALID,0,INVALID,133.222,VALID,0,VALID,23.2069,VALID,8,VALID,0,
2014-12-09, 00:19:04,VALID,1010.7,VALID,0,INVALID,133.214,VALID,0,VALID,23.2069,VALID,8,VALID,0,
2014-12-09, 00:20:04,VALID,1010.71,VALID,0,INVALID,133.207,VALID,0,VALID,23.1874,VALID,8,VALID,0,
2014-12-09, 00:21:04,VALID,1010.71,VALID,0,INVALID,133.207,VALID,0,VALID,23.1857,VALID,8,VALID,0,
2014-12-09, 00:22:04,VALID,1010.69,VALID,0,INVALID,133.214,VALID,0,VALID,23.2282,VALID,8,VALID,0,
2014-12-09, 00:23:04,VALID,1010.68,VALID,0,INVALID,133.184,VALID,0,VALID,23.2069,VALID,8,VALID,0,
2014-12-09, 00:24:04,VALID,1010.68,VALID,0,INVALID,133.191,VALID,0,VALID,23.2069,VALID,8,VALID,0,
2014-12-09, 00:25:04,VALID,1010.65,VALID,0,INVALID,133.153,VALID,0,VALID,23.2264,VALID,8,VALID,0,
2014-12-09, 00:26:04,VALID,1010.64,VALID,0,INVALID,133.047,VALID,0,VALID,23.2459,VALID,8,VALID,0,
2014-12-09, 00:27:04,VALID,1010.64,VALID,0,INVALID,132.978,VALID,0,VALID,23.2654,VALID,8,VALID,0,
2014-12-09, 00:28:04,VALID,1010.62,VALID,0,INVALID,132.993,VALID,0,VALID,23.2459,VALID,8,VALID,0,
2014-12-09, 00:29:04,VALID,1010.6,VALID,0,INVALID,133.001,VALID,0,VALID,23.2459,VALID,8,VALID,0,
2014-12-09, 00:30:04,VALID,1010.61,VALID,0,INVALID,132.993,VALID,0,VALID,23.2654,VALID,8,VALID,0,
2014-12-09, 00:31:04,VALID,1010.58,VALID,0,INVALID,132.986,VALID,0,VALID,23.2246,VALID,8,VALID,0,
2014-12-09, 00:32:04,VALID,1010.64,VALID,0,INVALID,132.97,VALID,0,VALID,23.2459,VALID,8,VALID,0,
2014-12-09, 00:33:04,VALID,1010.61,VALID,0,INVALID,133.001,VALID,0,VALID,23.2459,VALID,8,VALID,0,
2014-12-09, 00:34:04,VALID,1010.63,VALID,0,INVALID,132.947,VALID,0,VALID,23.2848,VALID,8,VALID,0,
2014-12-09, 00:35:04,VALID,1010.66,VALID,0,INVALID,132.932,VALID,0,VALID,23.2654,VALID,8,VALID,0,
2014-12-09, 00:36:04,VALID,1010.69,VALID,0,INVALID,132.955,VALID,0,VALID,23.2654,VALID,8,VALID,0,
2014-12-09, 00:37:04,VALID,1010.67,VALID,0,INVALID,132.902,VALID,0,VALID,23.2848,VALID,8,VALID,0,
2014-12-09, 00:38:04,VALID,1010.68,VALID,0,INVALID,132.902,VALID,0,VALID,23.2848,VALID,8,VALID,0,
2014-12-09, 00:39:04,VALID,1010.7,VALID,0,INVALID,132.902,VALID,0,VALID,23.2848,VALID,8,VALID,0,
2014-12-09, 00:40:04,VALID,1010.68,VALID,0,INVALID,132.841,VALID,0,VALID,23.3451,VALID,8,VALID,0,
2014-12-09, 00:41:04,VALID,1010.68,VALID,0,INVALID,132.886,VALID,0,VALID,23.3043,VALID,8,VALID,0,
2014-12-09, 00:42:04,VALID,1010.69,VALID,0,INVALID,132.909,VALID,0,VALID,23.3043,VALID,8,VALID,0,
2014-12-09, 00:43:04,VALID,1010.67,VALID,0,INVALID,132.902,VALID,0,VALID,23.3043,VALID,8,VALID,0,
2014-12-09, 00:44:04,VALID,1010.65,VALID,0,INVALID,132.955,VALID,0,VALID,23.3043,VALID,8,VALID,0,
2014-12-09, 00:45:04,VALID,1010.64,VALID,0,INVALID,133.008,VALID,0,VALID,23.3043,VALID,8,VALID,0,
2014-12-09, 00:46:04,VALID,1010.62,VALID,0,INVALID,133.008,VALID,0,VALID,23.3043,VALID,8,VALID,0,
2014-12-09, 00:47:04,VALID,1010.61,VALID,0,INVALID,133.039,VALID,0,VALID,23.3238,VALID,8,VALID,0,
2014-12-09, 00:48:04,VALID,1010.56,VALID,0,INVALID,132.986,VALID,0,VALID,23.3238,VALID,8,VALID,0,
2014-12-09, 00:49:04,VALID,1010.54,VALID,0,INVALID,133.047,VALID,0,VALID,23.3238,VALID,8,VALID,0,
2014-12-09, 00:50:04,VALID,1010.56,VALID,0,INVALID,133.062,VALID,0,VALID,23.3433,VALID,8,VALID,0,
2014-12-09, 00:51:04,VALID,1010.54,VALID,0,INVALID,133.031,VALID,0,VALID,23.3433,VALID,8,VALID,0,
2014-12-09, 00:52:04,VALID,1010.52,VALID,0,INVALID,133.054,VALID,0,VALID,23.3433,VALID,8,VALID,0,
2014-12-09, 00:53:04,VALID,1010.51,VALID,0,INVALID,133.1,VALID,0,VALID,23.3645,VALID,8,VALID,0,
2014-12-09, 00:54:04,VALID,1010.51,VALID,0,INVALID,133.23,VALID,0,VALID,23.3433,VALID,8,VALID,0,
2014-12-09, 00:55:04,VALID,1010.52,VALID,0,INVALID,133.275,VALID,0,VALID,23.3238,VALID,8,VALID,0,
2014-12-09, 00:56:04,VALID,1010.52,VALID,0,INVALID,133.367,VALID,0,VALID,23.3238,VALID,8,VALID,0,
2014-12-09, 00:57:04,VALID,1010.51,VALID,0,INVALID,133.474,VALID,0.112112,VALID,23.3238,VALID,8,VALID,0,
2014-12-09, 00:58:04,VALID,1010.52,VALID,0,INVALID,133.603,VALID,0,VALID,23.3238,VALID,8,VALID,0,
2014-12-09, 00:59:04,VALID,1010.48,VALID,0,INVALID,133.695,VALID,0,VALID,23.3238,VALID,8,VALID,0,
2014-12-09, 01:00:04,VALID,1010.53,VALID,0,INVALID,133.801,VALID,0.112112,VALID,23.322,VALID,8,VALID,0,
2014-12-09, 01:01:04,VALID,1010.52,VALID,0,INVALID,133.878,VALID,0.112112,VALID,23.322,VALID,8,VALID,0,
2014-12-09, 01:02:04,VALID,1010.5,VALID,0,INVALID,133.992,VALID,0.112112,VALID,23.3415,VALID,8,VALID,0,
2014-12-09, 01:03:04,VALID,1010.51,VALID,0,INVALID,134.129,VALID,0.112112,VALID,23.322,VALID,8,VALID,0,
2014-12-09, 01:04:04,VALID,1010.47,VALID,0,INVALID,134.229,VALID,0.112112,VALID,23.322,VALID,8,VALID,0,
2014-12-09, 01:05:04,VALID,1010.49,VALID,0,INVALID,134.343,VALID,0.112112,VALID,23.3415,VALID,8,VALID,0,
2014-12-09, 01:06:04,VALID,1010.49,VALID,0,INVALID,134.412,VALID,0.112112,VALID,23.322,VALID,8,VALID,0,
2014-12-09, 01:07:04,VALID,1010.47,VALID,0,INVALID,134.556,VALID,0.112112,VALID,23.322,VALID,8,VALID,0,
2014-12-09, 01:08:04,VALID,1010.49,VALID,0,INVALID,134.686,VALID,0.112112,VALID,23.3415,VALID,8,VALID,0,
2014-12-09, 01:09:04,VALID,1010.47,VALID,0,INVALID,134.831,VALID,0.112112,VALID,23.3415,VALID,8,VALID,0,
2014-12-09, 01:10:04,VALID,1010.47,VALID,0,INVALID,134.953,VALID,0.112112,VALID,23.322,VALID,8,VALID,0,
2014-12-09, 01:11:04,VALID,1010.44,VALID,0,INVALID,135.06,VALID,0.112112,VALID,23.322,VALID,8,VALID,0,
2014-12-09, 01:12:04,VALID,1010.45,VALID,0,INVALID,135.22,VALID,0.112112,VALID,23.3008,VALID,8,VALID,0,
2014-12-09, 01:13:04,VALID,1010.47,VALID,0,INVALID,135.35,VALID,0.112112,VALID,23.3008,VALID,8,VALID,0,
2014-12-09, 01:14:04,VALID,1010.45,VALID,0,INVALID,135.449,VALID,0.112112,VALID,23.322,VALID,8,VALID,0,
2014-12-09, 01:15:04,VALID,1010.43,VALID,0,INVALID,135.464,VALID,0,VALID,23.3451,VALID,8,VALID,0,
2014-12-09, 01:16:04,VALID,1010.41,VALID,0,INVALID,135.525,VALID,0,VALID,23.3451,VALID,8,VALID,0,
2014-12-09, 01:17:04,VALID,1010.39,VALID,0,INVALID,135.632,VALID,0,VALID,23.3238,VALID,8,VALID,0,
2014-12-09, 01:18:04,VALID,1010.4,VALID,0,INVALID,135.716,VALID,0,VALID,23.3043,VALID,8,VALID,0,
2014-12-09, 01:19:04,VALID,1010.42,VALID,0,INVALID,135.83,VALID,0,VALID,23.3256,VALID,8,VALID,0,
2014-12-09, 01:20:04,VALID,1010.41,VALID,0,INVALID,135.96,VALID,0,VALID,23.3043,VALID,8,VALID,0,
2014-12-09, 01:21:04,VALID,1010.39,VALID,0,INVALID,136.013,VALID,0,VALID,23.2848,VALID,8,VALID,0,
2014-12-09, 01:22:04,VALID,1010.42,VALID,0,INVALID,136.12,VALID,0,VALID,23.3061,VALID,8,VALID,0,
2014-12-09, 01:23:04,VALID,1010.41,VALID,0,INVALID,136.173,VALID,0,VALID,23.2848,VALID,8,VALID,0,
2014-12-09, 01:24:04,VALID,1010.39,VALID,0,INVALID,136.265,VALID,0,VALID,23.3043,VALID,8,VALID,0,
2014-12-09, 01:25:04,VALID,1010.41,VALID,0,INVALID,136.348,VALID,0,VALID,23.2866,VALID,8,VALID,0,
2014-12-09, 01:26:04,VALID,1010.4,VALID,0,INVALID,136.409,VALID,0,VALID,23.3061,VALID,8,VALID,0,
2014-12-09, 01:27:04,VALID,1010.38,VALID,0,INVALID,136.463,VALID,0,VALID,23.2654,VALID,8,VALID,0,
2014-12-09, 01:28:04,VALID,1010.38,VALID,0,INVALID,136.516,VALID,0,VALID,23.2654,VALID,8,VALID,0,
2014-12-09, 01:29:05,VALID,1010.39,VALID,0,INVALID,136.509,VALID,0,VALID,23.2654,VALID,8,VALID,0,
2014-12-09, 01:30:05,VALID,1010.4,VALID,0,INVALID,136.501,VALID,0,VALID,23.2866,VALID,8,VALID,0,
2014-12-09, 01:31:05,VALID,1010.36,VALID,0,INVALID,136.516,VALID,0,VALID,23.2654,VALID,8,VALID,0,
2014-12-09, 01:32:05,VALID,1010.35,VALID,0,INVALID,136.547,VALID,0,VALID,23.2654,VALID,8,VALID,0,
2014-12-09, 01:33:05,VALID,1010.34,VALID,0,INVALID,136.57,VALID,0,VALID,23.2654,VALID,8,VALID,0,
2014-12-09, 01:34:05,VALID,1010.31,VALID,0,INVALID,136.554,VALID,0,VALID,23.2654,VALID,8,VALID,0,
2014-12-09, 01:35:05,VALID,1010.3,VALID,0,INVALID,136.577,VALID,0,VALID,23.2654,VALID,8,VALID,0,
2014-12-09, 01:36:05,VALID,1010.31,VALID,0,INVALID,136.547,VALID,0,VALID,23.2654,VALID,8,VALID,0,
2014-12-09, 01:37:05,VALID,1010.29,VALID,0,INVALID,136.554,VALID,0,VALID,23.2671,VALID,8,VALID,0,
2014-12-09, 01:38:05,VALID,1010.28,VALID,0,INVALID,136.539,VALID,0,VALID,23.2459,VALID,8,VALID,0,
2014-12-09, 01:39:05,VALID,1010.3,VALID,0,INVALID,136.554,VALID,0,VALID,23.2459,VALID,8,VALID,0,
2014-12-09, 01:40:05,VALID,1010.28,VALID,0,INVALID,136.562,VALID,0,VALID,23.2459,VALID,8,VALID,0,
2014-12-09, 01:41:05,VALID,1010.26,VALID,0,INVALID,136.539,VALID,0,VALID,23.2459,VALID,8,VALID,0,
2014-12-09, 01:42:05,VALID,1010.27,VALID,0,INVALID,136.57,VALID,0,VALID,23.2264,VALID,8,VALID,0,
2014-12-09, 01:43:05,VALID,1010.27,VALID,0,INVALID,136.57,VALID,0,VALID,23.2459,VALID,8,VALID,0,
2014-12-09, 01:44:05,VALID,1010.28,VALID,0,INVALID,136.524,VALID,0,VALID,23.2459,VALID,8,VALID,0,
2014-12-09, 01:45:05,VALID,1010.28,VALID,0,INVALID,136.486,VALID,0,VALID,23.2459,VALID,8,VALID,0,
2014-12-09, 01:46:05,VALID,1010.29,VALID,0,INVALID,136.44,VALID,0,VALID,23.2459,VALID,8,VALID,0,
2014-12-09, 01:47:05,VALID,1010.29,VALID,0,INVALID,136.402,VALID,0,VALID,23.2654,VALID,8,VALID,0,
2014-12-09, 01:48:05,VALID,1010.31,VALID,0,INVALID,136.379,VALID,0,VALID,23.2654,VALID,8,VALID,0,
2014-12-09, 01:49:05,VALID,1010.3,VALID,0,INVALID,136.379,VALID,0,VALID,23.2866,VALID,8,VALID,0,
2014-12-09, 01:50:05,VALID,1010.3,VALID,0,INVALID,136.387,VALID,0,VALID,23.2654,VALID,8,VALID,0,
2014-12-09, 01:51:05,VALID,1010.28,VALID,0,INVALID,136.394,VALID,0,VALID,23.2654,VALID,8,VALID,0,
2014-12-09, 01:52:05,VALID,1010.28,VALID,0,INVALID,136.44,VALID,0,VALID,23.2459,VALID,8,VALID,0,
2014-12-09, 01:53:05,VALID,1010.29,VALID,0,INVALID,136.501,VALID,0,VALID,23.2459,VALID,8,VALID,0,
2014-12-09, 01:54:05,VALID,1010.32,VALID,0,INVALID,136.455,VALID,0,VALID,23.2459,VALID,8,VALID,0,
2014-12-09, 01:55:05,VALID,1010.31,VALID,0,INVALID,136.455,VALID,0,VALID,23.2459,VALID,8,VALID,0,
2014-12-09, 01:56:05,VALID,1010.33,VALID,0,INVALID,136.493,VALID,0,VALID,23.2264,VALID,8,VALID,0,
2014-12-09, 01:57:05,VALID,1010.3,VALID,0,INVALID,136.516,VALID,0,VALID,23.2264,VALID,8,VALID,0,
2014-12-09, 01:58:05,VALID,1010.32,VALID,0,INVALID,136.547,VALID,0,VALID,23.2264,VALID,8,VALID,0,
2014-12-09, 01:59:05,VALID,1010.31,VALID,0,INVALID,136.585,VALID,0,VALID,23.2069,VALID,8,VALID,0,
2014-12-09, 02:00:05,VALID,1010.3,VALID,0,INVALID,136.585,VALID,0,VALID,23.2282,VALID,8,VALID,0,
2014-12-09, 02:01:05,VALID,1010.34,VALID,0,INVALID,136.623,VALID,0,VALID,23.2069,VALID,8,VALID,0,
2014-12-09, 02:02:05,VALID,1010.36,VALID,0,INVALID,136.615,VALID,0,VALID,23.2069,VALID,8,VALID,0,
2014-12-09, 02:03:05,VALID,1010.35,VALID,0,INVALID,136.6,VALID,0,VALID,23.2069,VALID,8,VALID,0,
2014-12-09, 02:04:05,VALID,1010.32,VALID,0,INVALID,136.577,VALID,0,VALID,23.2282,VALID,8,VALID,0,
2014-12-09, 02:05:05,VALID,1010.34,VALID,0,INVALID,136.547,VALID,0,VALID,23.2087,VALID,8,VALID,0,
2014-12-09, 02:06:05,VALID,1010.33,VALID,0,INVALID,136.554,VALID,0,VALID,23.2087,VALID,8,VALID,0,
2014-12-09, 02:07:05,VALID,1010.31,VALID,0,INVALID,136.57,VALID,0,VALID,23.2087,VALID,8,VALID,0,
2014-12-09, 02:08:05,VALID,1010.3,VALID,0,INVALID,136.554,VALID,0,VALID,23.1874,VALID,8,VALID,0,
2014-12-09, 02:09:05,VALID,1010.32,VALID,0,INVALID,136.493,VALID,0,VALID,23.1874,VALID,8,VALID,0,
2014-12-09, 02:10:05,VALID,1010.33,VALID,0,INVALID,136.486,VALID,0,VALID,23.1874,VALID,8,VALID,0,
2014-12-09, 02:11:05,VALID,1010.33,VALID,0,INVALID,136.47,VALID,0,VALID,23.2087,VALID,8,VALID,0,
2014-12-09, 02:12:05,VALID,1010.35,VALID,0,INVALID,136.425,VALID,0,VALID,23.1874,VALID,8,VALID,0,
2014-12-09, 02:13:05,VALID,1010.32,VALID,0,INVALID,136.425,VALID,0,VALID,23.1892,VALID,8,VALID,0,
2014-12-09, 02:14:05,VALID,1010.31,VALID,0,INVALID,136.402,VALID,0,VALID,23.1679,VALID,8,VALID,0,
2014-12-09, 02:15:05,VALID,1010.29,VALID,0,INVALID,136.417,VALID,0,VALID,23.1892,VALID,8,VALID,0,
2014-12-09, 02:16:05,VALID,1010.31,VALID,0,INVALID,136.409,VALID,0,VALID,23.1874,VALID,8,VALID,0,
2014-12-09, 02:17:05,VALID,1010.32,VALID,0,INVALID,136.348,VALID,0,VALID,23.2087,VALID,8,VALID,0,
2014-12-09, 02:18:05,VALID,1010.3,VALID,0,INVALID,136.371,VALID,0,VALID,23.1679,VALID,8,VALID,0,
2014-12-09, 02:19:05,VALID,1010.29,VALID,0,INVALID,136.333,VALID,0,VALID,23.2087,VALID,8,VALID,0,
2014-12-09, 02:20:05,VALID,1010.3,VALID,0,INVALID,136.326,VALID,0,VALID,23.1679,VALID,8,VALID,0,
2014-12-09, 02:21:05,VALID,1010.3,VALID,0,INVALID,136.318,VALID,0,VALID,23.1679,VALID,8,VALID,0,
2014-12-09, 02:22:05,VALID,1010.28,VALID,0,INVALID,136.364,VALID,0,VALID,23.1679,VALID,8,VALID,0,
2014-12-09, 02:23:05,VALID,1010.29,VALID,0,INVALID,136.379,VALID,0,VALID,23.1485,VALID,8,VALID,0,
2014-12-09, 02:24:05,VALID,1010.28,VALID,0,INVALID,136.387,VALID,0,VALID,23.1697,VALID,8,VALID,0,
2014-12-09, 02:25:05,VALID,1010.28,VALID,0,INVALID,136.44,VALID,0,VALID,23.129,VALID,8,VALID,0,
2014-12-09, 02:26:05,VALID,1010.27,VALID,0,INVALID,136.402,VALID,0,VALID,23.1485,VALID,8,VALID,0,
2014-12-09, 02:27:05,VALID,1010.31,VALID,0,INVALID,136.425,VALID,0,VALID,23.1502,VALID,8,VALID,0,
2014-12-09, 02:28:05,VALID,1010.27,VALID,0,INVALID,136.409,VALID,0,VALID,23.1502,VALID,8,VALID,0,
2014-12-09, 02:29:05,VALID,1010.28,VALID,0,INVALID,136.318,VALID,0,VALID,23.1485,VALID,8,VALID,0,
2014-12-09, 02:30:05,VALID,1010.25,VALID,0,INVALID,136.287,VALID,0,VALID,23.1485,VALID,8,VALID,0,
2014-12-09, 02:31:05,VALID,1010.25,VALID,0,INVALID,136.249,VALID,0,VALID,23.1485,VALID,8,VALID,0,
2014-12-09, 02:32:05,VALID,1010.22,VALID,0,INVALID,136.242,VALID,0,VALID,23.1485,VALID,8,VALID,0,
2014-12-09, 02:33:05,VALID,1010.24,VALID,0,INVALID,136.257,VALID,0,VALID,23.129,VALID,8,VALID,0,
2014-12-09, 02:34:05,VALID,1010.23,VALID,0,INVALID,136.341,VALID,0,VALID,23.129,VALID,8,VALID,0,
2014-12-09, 02:35:05,VALID,1010.23,VALID,0,INVALID,136.417,VALID,0,VALID,23.1095,VALID,8,VALID,0,
2014-12-09, 02:36:05,VALID,1010.22,VALID,0,INVALID,136.44,VALID,0,VALID,23.09,VALID,8,VALID,0,
2014-12-09, 02:37:05,VALID,1010.25,VALID,0,INVALID,136.478,VALID,0,VALID,23.09,VALID,8,VALID,0,
2014-12-09, 02:38:05,VALID,1010.23,VALID,0,INVALID,136.577,VALID,0,VALID,23.09,VALID,8,VALID,0,
2014-12-09, 02:39:05,VALID,1010.22,VALID,0,INVALID,136.615,VALID,0,VALID,23.0705,VALID,8,VALID,0,
2014-12-09, 02:40:05,VALID,1010.2,VALID,0,INVALID,136.684,VALID,0,VALID,23.0918,VALID,8,VALID,0,
2014-12-09, 02:41:05,VALID,1010.17,VALID,0,INVALID,136.699,VALID,0,VALID,23.0511,VALID,8,VALID,0,
2014-12-09, 02:42:05,VALID,1010.21,VALID,0,INVALID,136.692,VALID,0,VALID,23.0705,VALID,8,VALID,0,
2014-12-09, 02:43:05,VALID,1010.19,VALID,0,INVALID,136.669,VALID,0,VALID,23.0705,VALID,8,VALID,0,
2014-12-09, 02:44:05,VALID,1010.18,VALID,0,INVALID,136.73,VALID,0,VALID,23.0511,VALID,8,VALID,0,
2014-12-09, 02:45:05,VALID,1010.16,VALID,0,INVALID,136.692,VALID,0,VALID,23.0511,VALID,8,VALID,0,
2014-12-09, 02:46:05,VALID,1010.16,VALID,0,INVALID,136.737,VALID,0,VALID,23.0316,VALID,8,VALID,0,
2014-12-09, 02:47:05,VALID,1010.15,VALID,0,INVALID,136.791,VALID,0,VALID,23.0316,VALID,8,VALID,0,
2014-12-09, 02:48:05,VALID,1010.14,VALID,0,INVALID,136.783,VALID,0,VALID,23.0121,VALID,8,VALID,0,
2014-12-09, 02:49:05,VALID,1010.14,VALID,0,INVALID,136.814,VALID,0,VALID,23.0121,VALID,8,VALID,0,
2014-12-09, 02:50:05,VALID,1010.13,VALID,0,INVALID,136.806,VALID,0,VALID,22.9926,VALID,8,VALID,0,
2014-12-09, 02:51:05,VALID,1010.12,VALID,0,INVALID,136.852,VALID,0,VALID,22.9731,VALID,8,VALID,0,
2014-12-09, 02:52:05,VALID,1010.09,VALID,0,INVALID,136.89,VALID,0,VALID,22.9731,VALID,8,VALID,0,
2014-12-09, 02:53:05,VALID,1010.09,VALID,0,INVALID,136.867,VALID,0,VALID,22.9731,VALID,8,VALID,0,
2014-12-09, 02:54:05,VALID,1010.07,VALID,0,INVALID,136.814,VALID,0,VALID,22.9731,VALID,8,VALID,0,
2014-12-09, 02:55:05,VALID,1010.08,VALID,0,INVALID,136.73,VALID,0,VALID,22.9731,VALID,8,VALID,0,
2014-12-09, 02:56:05,VALID,1010.06,VALID,0,INVALID,136.684,VALID,0,VALID,22.9926,VALID,8,VALID,0,
2014-12-09, 02:57:05,VALID,1010.06,VALID,0,INVALID,136.592,VALID,0,VALID,22.9731,VALID,8,VALID,0,
2014-12-09, 02:58:05,VALID,1010.05,VALID,0,INVALID,136.547,VALID,0,VALID,22.9536,VALID,8,VALID,0,
2014-12-09, 02:59:05,VALID,1010.02,VALID,0,INVALID,136.562,VALID,0,VALID,22.9536,VALID,8,VALID,0,
2014-12-09, 03:00:05,VALID,1010.02,VALID,0,INVALID,136.516,VALID,0,VALID,22.9536,VALID,8,VALID,0,
2014-12-09, 03:01:05,VALID,1010.02,VALID,0,INVALID,136.486,VALID,0,VALID,22.9342,VALID,8,VALID,0,
2014-12-09, 03:02:05,VALID,1010.03,VALID,0,INVALID,136.501,VALID,0,VALID,22.9147,VALID,8,VALID,0,
2014-12-09, 03:03:05,VALID,1010.02,VALID,0,INVALID,136.501,VALID,0,VALID,22.8952,VALID,8,VALID,0,
2014-12-09, 03:04:05,VALID,1009.99,VALID,0,INVALID,136.524,VALID,0,VALID,22.8952,VALID,8,VALID,0,
2014-12-09, 03:05:05,VALID,1009.99,VALID,0,INVALID,136.524,VALID,0,VALID,22.8757,VALID,8,VALID,0,
2014-12-09, 03:06:05,VALID,1009.99,VALID,0,INVALID,136.524,VALID,0,VALID,22.8562,VALID,8,VALID,0,
2014-12-09, 03:07:05,VALID,1009.98,VALID,0,INVALID,136.547,VALID,0,VALID,22.858,VALID,8,VALID,0,
2014-12-09, 03:08:05,VALID,1010,VALID,0,INVALID,136.547,VALID,0,VALID,22.8368,VALID,8,VALID,0,
2014-12-09, 03:09:05,VALID,1010.02,VALID,0,INVALID,136.524,VALID,0,VALID,22.8368,VALID,8,VALID,0,
2014-12-09, 03:10:05,VALID,1010.02,VALID,0,INVALID,136.539,VALID,0,VALID,22.8385,VALID,8,VALID,0,
2014-12-09, 03:11:05,VALID,1010.03,VALID,0,INVALID,136.608,VALID,0,VALID,22.7978,VALID,8,VALID,0,
2014-12-09, 03:12:05,VALID,1010.01,VALID,0,INVALID,136.684,VALID,0,VALID,22.7783,VALID,8,VALID,0,
2014-12-09, 03:13:05,VALID,1010.02,VALID,0,INVALID,136.722,VALID,0,VALID,22.7394,VALID,8,VALID,0,
2014-12-09, 03:14:05,VALID,1010.02,VALID,0,INVALID,136.76,VALID,0,VALID,22.7199,VALID,8,VALID,0,
2014-12-09, 03:15:05,VALID,1009.99,VALID,0,INVALID,136.783,VALID,0,VALID,22.7004,VALID,8,VALID,0,
2014-12-09, 03:16:05,VALID,1010.01,VALID,0,INVALID,136.722,VALID,0.112112,VALID,22.6809,VALID,8,VALID,0,
2014-12-09, 03:17:05,VALID,1010.03,VALID,0,INVALID,136.669,VALID,0,VALID,22.6809,VALID,8,VALID,0,
2014-12-09, 03:18:05,VALID,1010,VALID,0,INVALID,136.608,VALID,0,VALID,22.6614,VALID,8,VALID,0,
2014-12-09, 03:19:05,VALID,1010.01,VALID,0,INVALID,136.547,VALID,0,VALID,22.6614,VALID,8,VALID,0,
2014-12-09, 03:20:05,VALID,1010,VALID,0,INVALID,136.554,VALID,0,VALID,22.642,VALID,8,VALID,0,
2014-12-09, 03:21:05,VALID,1009.99,VALID,0,INVALID,136.47,VALID,0,VALID,22.6208,VALID,8,VALID,0,
2014-12-09, 03:22:05,VALID,1009.98,VALID,0,INVALID,136.371,VALID,0,VALID,22.6437,VALID,8,VALID,0,
2014-12-09, 03:23:05,VALID,1009.99,VALID,0,INVALID,136.249,VALID,0,VALID,22.642,VALID,8,VALID,0,
2014-12-09, 03:24:05,VALID,1009.93,VALID,0,INVALID,136.143,VALID,0,VALID,22.6225,VALID,8,VALID,0,
2014-12-09, 03:25:05,VALID,1009.94,VALID,0,INVALID,136.036,VALID,0,VALID,22.642,VALID,8,VALID,0,
2014-12-09, 03:26:05,VALID,1009.97,VALID,0,INVALID,135.891,VALID,0,VALID,22.642,VALID,8,VALID,0,
2014-12-09, 03:27:05,VALID,1009.96,VALID,0,INVALID,135.769,VALID,0,VALID,22.642,VALID,8,VALID,0,
2014-12-09, 03:28:05,VALID,1009.97,VALID,0,INVALID,135.777,VALID,0,VALID,22.6225,VALID,8,VALID,0,
2014-12-09, 03:29:05,VALID,1009.97,VALID,0,INVALID,135.777,VALID,0,VALID,22.603,VALID,8,VALID,0,
2014-12-09, 03:30:05,VALID,1009.95,VALID,0,INVALID,135.601,VALID,0,VALID,22.603,VALID,8,VALID,0,
2014-12-09, 03:31:05,VALID,1009.97,VALID,0,INVALID,135.449,VALID,0,VALID,22.603,VALID,8,VALID,0,
2014-12-09, 03:32:05,VALID,1009.96,VALID,0,INVALID,135.357,VALID,0,VALID,22.603,VALID,8,VALID,0,
2014-12-09, 03:33:05,VALID,1009.97,VALID,0,INVALID,135.296,VALID,0,VALID,22.6225,VALID,8,VALID,0,
2014-12-09, 03:34:05,VALID,1009.97,VALID,0,INVALID,135.25,VALID,0.112112,VALID,22.5623,VALID,8,VALID,0,
2014-12-09, 03:35:05,VALID,1009.95,VALID,0,INVALID,135.205,VALID,0,VALID,22.5835,VALID,8,VALID,0,
2014-12-09, 03:36:05,VALID,1009.96,VALID,0,INVALID,135.166,VALID,0,VALID,22.564,VALID,8,VALID,0,
2014-12-09, 03:37:05,VALID,1009.98,VALID,0,INVALID,135.182,VALID,0,VALID,22.5446,VALID,8,VALID,0,
2014-12-09, 03:38:05,VALID,1009.99,VALID,0,INVALID,135.166,VALID,0,VALID,22.5251,VALID,8,VALID,0,
2014-12-09, 03:39:05,VALID,1009.98,VALID,0,INVALID,135.113,VALID,0,VALID,22.5251,VALID,8,VALID,0,
2014-12-09, 03:40:05,VALID,1010.01,VALID,0,INVALID,135.006,VALID,0,VALID,22.5056,VALID,8,VALID,0,
2014-12-09, 03:41:05,VALID,1009.99,VALID,0,INVALID,134.922,VALID,0,VALID,22.5056,VALID,8,VALID,0,
2014-12-09, 03:42:05,VALID,1010,VALID,0,INVALID,134.816,VALID,0,VALID,22.5251,VALID,8,VALID,0,
2014-12-09, 03:43:05,VALID,1009.98,VALID,0,INVALID,134.694,VALID,0,VALID,22.5251,VALID,8,VALID,0,
2014-12-09, 03:44:05,VALID,1010.01,VALID,0,INVALID,134.633,VALID,0,VALID,22.4861,VALID,8,VALID,0,
2014-12-09, 03:45:05,VALID,1009.99,VALID,0,INVALID,134.617,VALID,0,VALID,22.5056,VALID,8,VALID,0,
2014-12-09, 03:46:05,VALID,1009.98,VALID,0,INVALID,134.61,VALID,0,VALID,22.4667,VALID,8,VALID,0,
2014-12-09, 03:47:05,VALID,1009.97,VALID,0,INVALID,134.617,VALID,0,VALID,22.4667,VALID,8,VALID,0,
2014-12-09, 03:48:05,VALID,1009.95,VALID,0,INVALID,134.648,VALID,0,VALID,22.4472,VALID,8,VALID,0,
2014-12-09, 03:49:05,VALID,1009.98,VALID,0,INVALID,134.648,VALID,0,VALID,22.4277,VALID,8,VALID,0,
2014-12-09, 03:50:05,VALID,1009.97,VALID,0,INVALID,134.686,VALID,0,VALID,22.4082,VALID,8,VALID,0,
2014-12-09, 03:51:05,VALID,1010,VALID,0,INVALID,134.671,VALID,0,VALID,22.4082,VALID,8,VALID,0,
2014-12-09, 03:52:05,VALID,1009.96,VALID,0,INVALID,134.778,VALID,0,VALID,22.3498,VALID,8,VALID,0,
2014-12-09, 03:53:05,VALID,1009.95,VALID,0,INVALID,134.861,VALID,0,VALID,22.3303,VALID,8,VALID,0,
2014-12-09, 03:54:05,VALID,1009.96,VALID,0,INVALID,134.869,VALID,0,VALID,22.3108,VALID,8,VALID,0,
2014-12-09, 03:55:05,VALID,1009.95,VALID,0,INVALID,134.846,VALID,0,VALID,22.2914,VALID,8,VALID,0,
2014-12-09, 03:56:05,VALID,1009.92,VALID,0,INVALID,134.808,VALID,0.112112,VALID,22.2914,VALID,8,VALID,0,
2014-12-09, 03:57:05,VALID,1009.93,VALID,0,INVALID,134.785,VALID,0,VALID,22.2719,VALID,8,VALID,0,
2014-12-09, 03:58:05,VALID,1009.91,VALID,0,INVALID,134.747,VALID,0,VALID,22.2719,VALID,8,VALID,0,
2014-12-09, 03:59:05,VALID,1009.88,VALID,0,INVALID,134.694,VALID,0,VALID,22.2524,VALID,8,VALID,0,